• In Netherlands
  • List of Countries
  • For 7 days
  • Water Temperature
  • Satellite Maps
  • Weather Map
  • Weather Widgets
  • user-avatar
    Login

    Hourly Weather Klagenfurt

    Today, 23 July, Sunday

    Time Temperature Precipitation Wind Pressure Humidity
    00:00 +18°C° 0 mm 1 mps 690 mmHg 87%
    01:00 +16°C° 0 mm 1 mps 690 mmHg 88%
    02:00 +16°C° 0 mm 1 mps 690 mmHg 88%
    03:00 +16°C° 0 mm 1 mps 690 mmHg 88%
    04:00 +16°C° 0 mm 1 mps 690 mmHg 88%
    05:00 +18°C° 0 mm 1 mps 690 mmHg 83%
    06:00 +20°C° 0 mm 1 mps 691 mmHg 79%
    07:00 +21°C° 0 mm 1 mps 691 mmHg 74%
    08:00 +23°C° 0.1 mm 1 mps 691 mmHg 67%
    09:00 +25°C° 0.1 mm 1 mps 692 mmHg 60%
    10:00 +28°C° 0.1 mm 1 mps 692 mmHg 53%
    11:00 +28°C° 0.6 mm 1 mps 692 mmHg 55%
    12:00 +28°C° 0.6 mm 1 mps 692 mmHg 56%
    13:00 +28°C° 0.6 mm 1 mps 692 mmHg 57%
    14:00 +28°C° 0.7 mm 1 mps 692 mmHg 58%
    15:00 +27°C° 0.7 mm 1 mps 691 mmHg 60%
    16:00 +27°C° 0.7 mm 1 mps 691 mmHg 61%
    17:00 +25°C° 0.7 mm 1 mps 691 mmHg 68%
    18:00 +23°C° 0.7 mm 1 mps 691 mmHg 75%
    19:00 +22°C° 0.7 mm 1 mps 690 mmHg 82%
    20:00 +21°C° 0.5 mm 1 mps 690 mmHg 84%
    21:00 +19°C° 0.5 mm 1 mps 690 mmHg 87%
    22:00 +18°C° 0.5 mm 1 mps 690 mmHg 90%
    23:00 +18°C° 0.2 mm 1 mps 690 mmHg 91%

    Tomorrow, 24 July, Monday

    Time Temperature Precipitation Wind Pressure Humidity
    00:00 +18°C° 0.2 mm 1 mps 690 mmHg 92%
    01:00 +16°C° 0.2 mm 1 mps 689 mmHg 93%
    02:00 +16°C° 0.7 mm 1 mps 689 mmHg 94%
    03:00 +16°C° 0.7 mm 1 mps 688 mmHg 95%
    04:00 +16°C° 0.7 mm 1 mps 688 mmHg 96%
    05:00 +18°C° 1.3 mm 1 mps 688 mmHg 95%
    06:00 +18°C° 1.3 mm 1 mps 688 mmHg 94%
    07:00 +19°C° 1.3 mm 1 mps 687 mmHg 94%
    08:00 +19°C° 0.9 mm 1 mps 687 mmHg 92%
    09:00 +20°C° 0.9 mm 1 mps 687 mmHg 91%
    10:00 +20°C° 0.9 mm 1 mps 687 mmHg 89%
    11:00 +21°C° 0.9 mm 1 mps 686 mmHg 87%
    12:00 +21°C° 0.9 mm 1 mps 686 mmHg 84%
    13:00 +22°C° 0.9 mm 1 mps 685 mmHg 82%
    14:00 +22°C° 0.9 mm 1 mps 685 mmHg 81%
    15:00 +22°C° 0.9 mm 1 mps 684 mmHg 81%
    16:00 +22°C° 0.9 mm 1 mps 684 mmHg 80%
    17:00 +20°C° 2 mm 2 mps 684 mmHg 83%
    18:00 +19°C° 2 mm 2 mps 684 mmHg 86%
    19:00 +17°C° 2 mm 2 mps 684 mmHg 89%
    20:00 +16°C° 3.3 mm 2 mps 684 mmHg 91%
    21:00 +15°C° 3.3 mm 2 mps 684 mmHg 93%
    22:00 +14°C° 3.3 mm 2 mps 684 mmHg 95%
    23:00 +13°C° 0.3 mm 2 mps 683 mmHg 95%

    Day after tomorrow, 25 July, Tuesday

    Time Temperature Precipitation Wind Pressure Humidity
    00:00 +12°C° 0.3 mm 2 mps 683 mmHg 95%
    01:00 +11°C° 0.3 mm 1 mps 683 mmHg 95%
    02:00 +11°C° 0.1 mm 1 mps 683 mmHg 94%
    03:00 +11°C° 0.1 mm 1 mps 683 mmHg 94%
    04:00 +11°C° 0.1 mm 1 mps 683 mmHg 93%
    05:00 +12°C° 0 mm 1 mps 683 mmHg 92%
    06:00 +12°C° 0 mm 1 mps 683 mmHg 90%
    07:00 +13°C° 0 mm 1 mps 683 mmHg 88%
    08:00 +14°C° 0 mm 1 mps 683 mmHg 80%
    09:00 +15°C° 0 mm 1 mps 684 mmHg 71%
    10:00 +16°C° 0 mm 1 mps 684 mmHg 63%
    11:00 +19°C° 0 mm 1 mps 684 mmHg 56%
    12:00 +21°C° 0 mm 1 mps 684 mmHg 49%
    13:00 +22°C° 0 mm 1 mps 684 mmHg 43%
    14:00 +22°C° 0 mm 1 mps 684 mmHg 45%
    15:00 +22°C° 0 mm 1 mps 684 mmHg 47%
    16:00 +20°C° 0 mm 2 mps 683 mmHg 49%
    17:00 +20°C° 0.2 mm 1 mps 683 mmHg 58%
    18:00 +18°C° 0.2 mm 1 mps 683 mmHg 67%
    19:00 +16°C° 0.2 mm 1 mps 683 mmHg 76%
    20:00 +15°C° 0.1 mm 1 mps 683 mmHg 79%
    21:00 +13°C° 0.1 mm 1 mps 683 mmHg 82%
    22:00 +12°C° 0.1 mm 1 mps 683 mmHg 86%
    23:00 +11°C° 0 mm 1 mps 683 mmHg 86%

    26 July, Wednesday

    Time Temperature Precipitation Wind Pressure Humidity
    00:00 +11°C° 0 mm 1 mps 683 mmHg 86%
    01:00 +10°C° 0 mm 1 mps 683 mmHg 87%
    02:00 +10°C° 0 mm 1 mps 683 mmHg 87%
    03:00 +10°C° 0 mm 1 mps 683 mmHg 88%
    04:00 +9°C° 0 mm 1 mps 683 mmHg 88%
    05:00 +11°C° 0 mm 1 mps 683 mmHg 83%
    06:00 +12°C° 0 mm 1 mps 683 mmHg 78%
    07:00 +14°C° 0 mm 1 mps 683 mmHg 73%
    08:00 +16°C° 0 mm 1 mps 684 mmHg 64%
    09:00 +19°C° 0 mm 1 mps 685 mmHg 55%
    10:00 +21°C° 0 mm 1 mps 685 mmHg 47%
    11:00 +22°C° 0 mm 1 mps 685 mmHg 46%
    12:00 +22°C° 0 mm 1 mps 685 mmHg 44%
    13:00 +23°C° 0 mm 2 mps 685 mmHg 43%
    14:00 +23°C° 0.1 mm 2 mps 685 mmHg 46%
    15:00 +22°C° 0.1 mm 1 mps 685 mmHg 49%
    16:00 +22°C° 0.1 mm 1 mps 685 mmHg 52%
    17:00 +20°C° 0.2 mm 1 mps 685 mmHg 60%
    18:00 +19°C° 0.2 mm 1 mps 685 mmHg 68%
    19:00 +16°C° 0.2 mm 1 mps 686 mmHg 76%
    20:00 +15°C° 0 mm 1 mps 686 mmHg 79%
    21:00 +14°C° 0 mm 1 mps 686 mmHg 82%
    22:00 +12°C° 0 mm 1 mps 686 mmHg 86%
    23:00 +12°C° 0 mm 1 mps 687 mmHg 86%

    27 July, Thursday

    Time Temperature Precipitation Wind Pressure Humidity
    00:00 +12°C° 0 mm 1 mps 687 mmHg 86%
    01:00 +12°C° 0 mm 1 mps 687 mmHg 87%
    02:00 +12°C° 0 mm 1 mps 687 mmHg 86%
    03:00 +12°C° 0 mm 1 mps 687 mmHg 84%
    04:00 +12°C° 0 mm 1 mps 688 mmHg 83%
    05:00 +13°C° 0 mm 1 mps 688 mmHg 80%
    06:00 +14°C° 0 mm 1 mps 689 mmHg 77%
    07:00 +15°C° 0 mm 1 mps 689 mmHg 74%
    08:00 +16°C° 0 mm 1 mps 690 mmHg 68%
    09:00 +19°C° 0 mm 1 mps 690 mmHg 62%
    10:00 +20°C° 0 mm 1 mps 690 mmHg 56%
    11:00 +21°C° 0 mm 1 mps 691 mmHg 52%
    12:00 +23°C° 0 mm 1 mps 691 mmHg 48%
    13:00 +24°C° 0 mm 2 mps 691 mmHg 45%
    14:00 +24°C° 0 mm 1 mps 691 mmHg 46%
    15:00 +23°C° 0 mm 1 mps 690 mmHg 47%
    16:00 +23°C° 0 mm 1 mps 690 mmHg 48%
    17:00 +22°C° 0 mm 1 mps 690 mmHg 56%
    18:00 +20°C° 0 mm 1 mps 690 mmHg 63%
    19:00 +17°C° 0 mm 0 mps 690 mmHg 71%
    20:00 +16°C° 0 mm 0 mps 690 mmHg 75%
    21:00 +15°C° 0 mm 1 mps 690 mmHg 78%
    22:00 +14°C° 0 mm 1 mps 690 mmHg 82%
    23:00 +13°C° 0 mm 1 mps 690 mmHg 83%

    28 July, Friday

    Time Temperature Precipitation Wind Pressure Humidity
    00:00 +13°C° 0 mm 1 mps 690 mmHg 84%
    01:00 +12°C° 0 mm 1 mps 690 mmHg 85%
    02:00 +12°C° 0 mm 1 mps 690 mmHg 86%
    03:00 +12°C° 0 mm 1 mps 690 mmHg 86%
    04:00 +12°C° 0 mm 1 mps 690 mmHg 87%
    05:00 +13°C° 0 mm 1 mps 690 mmHg 81%
    06:00 +14°C° 0 mm 0 mps 691 mmHg 75%
    07:00 +16°C° 0 mm 0 mps 691 mmHg 69%
    08:00 +19°C° 0 mm 0 mps 692 mmHg 61%
    09:00 +22°C° 0 mm 0 mps 692 mmHg 53%
    10:00 +25°C° 0 mm 0 mps 693 mmHg 45%
    11:00 +26°C° 0 mm 0 mps 693 mmHg 42%
    12:00 +29°C° 0 mm 1 mps 693 mmHg 40%
    13:00 +30°C° 0 mm 1 mps 693 mmHg 37%
    14:00 +29°C° 0 mm 1 mps 693 mmHg 38%
    15:00 +28°C° 0 mm 1 mps 692 mmHg 40%
    16:00 +28°C° 0 mm 1 mps 692 mmHg 42%
    17:00 +26°C° 0.1 mm 1 mps 692 mmHg 52%
    18:00 +24°C° 0.1 mm 1 mps 691 mmHg 62%
    19:00 +22°C° 0.1 mm 1 mps 691 mmHg 72%
    20:00 +20°C° 0 mm 1 mps 691 mmHg 77%
    21:00 +19°C° 0 mm 1 mps 692 mmHg 81%
    22:00 +16°C° 0 mm 0 mps 692 mmHg 85%
    23:00 +16°C° 0 mm 1 mps 692 mmHg 86%
    Show more